Flag for Netherlands Weather past 2 weeks in Philipsburg, Sint Maarten, Netherlands

81 °F

Light rain. Broken clouds.

Feels Like: 86 °F
Forecast: N/A
Wind: 13 mph from Southeast

Location: Juliana Airport - Saint Maarten

Current Time: Oct 8, 2015 at 6:24:19 PM

Latest Report: Oct 8, 2015 at 5:00 PM

Visibility: N/A

Pressure: 29.95 "Hg

Humidity: 84%

Dew point: 75 °F

Location of PhilipsburgLocation

Historic Weather in Philipsburg — Graph


Philipsburg temperature yesterday

Maximum temperature yesterday: 90 °F (at 11:00 AM)
Minimum temperature yesterday: 82 °F (at 12:00 AM)
Average temperature yesterday: 86 °F

Past Weeks' High & Low Weather Summary

High90 °F (Sep 28, 10:00 AM)89% (Oct 8, 3:00 AM)30.04 "Hg (Oct 8, 3:00 AM)
Low81 °F (Sep 27, 6:00 AM)52% (Sep 28, 10:00 AM)29.77 "Hg (Oct 1, 2:00 AM)
Average85 °F73%29.90 "Hg
* Reported Sep 23 5:00 PM — Oct 8 5:00 PM, Philipsburg, Weather by CustomWeather, © 2015

Note: Actual official high and low records may vary slightly from our data, if they occured in-between our weather recording intervals... More about our weather records


Philipsburg weather history for previous 24 hours

Time TempWeatherWind HumidityBarometerVisibility
5:00 PM
Thu, Oct 8
81 °FLight rain. Broken clouds.13 mph84%29.95 "HgN/A
4:00 PM82 °FLight rain. Scattered clouds.1 mph79%29.92 "HgN/A
3:00 PM81 °FLight rain. Scattered clouds.3 mph84%29.92 "HgN/A
2:00 PM81 °FLight rain. Cloudy.7 mph84%29.95 "HgN/A
1:00 PM81 °FThunderstorms. Scattered clouds.14 mph79%29.95 "HgN/A
12:00 PM82 °FSprinkles. Partly sunny.20 mph84%29.98 "HgN/A
11:00 AM86 °FPartly sunny.8 mph75%29.98 "HgN/A
10:00 AM84 °FScattered clouds.8 mph84%29.98 "HgN/A
9:00 AM84 °FPassing clouds.5 mph79%29.95 "HgN/A
8:00 AM82 °FScattered clouds.3 mph89%29.95 "HgN/A
7:00 AM81 °FSprinkles. Scattered clouds.3 mph89%29.92 "HgN/A
6:00 AM82 °FPassing clouds.5 mph84%29.92 "HgN/A
5:00 AM82 °FPassing clouds.7 mph84%29.92 "HgN/A
4:00 AM81 °FSprinkles. Passing clouds.3 mph84%29.89 "HgN/A
3:00 AM82 °FSprinkles. Passing clouds.7 mph89%29.92 "HgN/A
2:00 AM84 °FPassing clouds.12 mph79%29.92 "HgN/A
1:00 AM84 °FPassing clouds.10 mph79%29.92 "HgN/A
12:00 AM84 °FPassing clouds.10 mph79%29.95 "HgN/A
11:00 PM
Wed, Oct 7
84 °FPassing clouds.10 mph79%29.95 "HgN/A
10:00 PM84 °FPassing clouds.13 mph79%29.98 "HgN/A
9:00 PM86 °FPassing clouds.10 mph75%29.98 "HgN/A
8:00 PM86 °FPassing clouds.13 mph75%29.95 "HgN/A
7:00 PM86 °FPassing clouds.9 mph75%29.95 "HgN/A
6:00 PM86 °FPassing clouds.12 mph70%29.92 "HgN/A
Weather by CustomWeather, © 2015

See weather overviewHow to use our weather pages